EHI
0 0 0 0 0 0 0 0 0 0 0 0 0 0 0 0 0 0 0 0 0 0 0 0 0 0 0 0 0 0 0 0 0 0 0 0 0 0
0 0 0 0 0 0 0 0 0 0 0 0 0 0 0 0 0 0 0 0 0 0 0 0 0 0 0 0 0 0 0 0 0 0 0 0 0 0
0 0 0 0 0 0 0 0 0 0 0 0 0 0 0 0 0 0 0 0 0 0 0 0 0 0 0 0 0 0 0 0 0 0 0 0 0 0
0 0 0 0 0 0 0 0 0 0 0 0 0 0 0 0 0 0 0 0 0 0 0 0 0 0 0 0 0 0 0 0 0 0 0 0 0 0
0 0 0 0 0 0 0 0 0 0 0 0 0 0 0 0 0 0 0 0 0 0 0 0 0 0 0 0 0 0 0 0 0 0 0 0 0 0
0 0 0 0 0 0 0 0 0 0 0 0 0 0 0 0 0 0 0 0 0 0 0 0 0 0 0 0 0 0 0 0 0 0 0 0 0 0
0 0 0 0 0 0 0 0 0 0 0 0 0 0 0 0 0 0 0 0 0 0 0 0 0 0 0 0 0 0 0 0 0 0 0 0 0 0
0 0 0 0 0 0 0 0 0 0 0 0 0 0 0 0 0 0 0 0 0 0 0 0 0 0 0 0 0 0 0 0 0 0 0 0 0 0
0 0 0 0 0 0 0 0 0 0 0 0 0 0 0 0 0 0 0 0 0 0 0 0 0 0 0 0 0 0 0 0 0 0 0 0 0 0
0 0 0 0 0 0 0 0 0 0 0 0 0 0 0 0 0 0 0 0 0 0 0 0 0 0 0 0 0 0 0 0 0 0 0 0 0 0
0 0 0 0 0 0 0 0 0 0 0 0 0 0 0 0 0 0 0 0 0 0 0 0 0 0 0 0 0 0 0 0 0 0 0 0 0 0
0 0 0 0 0 0 0 0 0 0 0 0 0 0 0 0 0 0 0 0 0 0 0 0 0 0 0 0 0 0 0 0 0 0 0 0 0 0
0 0 0 0 0 0 0 0 0 0 0 0 0 0 0 0 0 0 0 0 0 0 0 0 0 0 0 0 0 0 0 0 0 0 0 0 0 0
0 0 0 0 0 0 0 0 0 0 0 0 0 0 0 0 0 0 0 0 0 0 0 0 0 0 0 0 0 0 0 0 0 0 0 0 0 0
0 0 0 0 0 0 0 0 0 0 0 0 0 0 0 0 0 0 0 0 0 0 0 0 0 0 0 0 0 0 0 0 0 0 0 0 0 0
0 0 0 0 0 0 0 0 0 0 0 0 0 0 0 0 0 0 0 0 0 0 0 0 0 0 0 0 0 0 0 0 0 0 0 0 0 0
0 0 0 0 0 0 0 0 0 0 0 0 0 0 0 0 0 0 0 0 0 0 0 0 0 0 0 0 0 0 0 0 0 0 0 0 0 0
0 0 0 0 0 0 0 0 0 0 0 0 0 0 0 0 0 0 0 0 0 0 0 0 0 0 0 0 0 0 0 0 0 0 0 0 0 0
0 0 0 0 0 0 0 0 0 0 0 0 0 0 0 0 0 0 0 0 0 0 0 0 0 0 0 0 0 0 0 0 0 0 0 0 0 0
0 0 0 0 0 0 0 0 0 0 0 0 0 0 0 0 0 0 0 0 0 0 0 0 0 0 0 0 0 0 0 0 0 0 0 0 0 0
0 0 0 0 0 0 0 0 0 0 0 0 0 0 0 0 0 0 0 0 0 0 0 0 0 0 0 0 0 0 0 0 0 0 0 0 0 0
0 0 0 0 0 0 0 0 0 0 0 0 0 0 0 0 0 0 0 0 0 0 0 0 0 0 0 0 0 0 0 0 0 0 0 0 0 0
0 0 0 0 0 0 0 0 0 0 0 0 0 0 0 0 0 0 0 0 0 0 0 0 0 0 0 0 0 0 0 0 0 0 0 0 0 0
Wind_Speed
4 4 3 2 2 2 3 4 5 4 3 3 2 1 1 1 1 1 0 1 2 2 2 3 3 4 4 4 5 6 6 6 6 6 7 8 8 9
3 3 3 2 2 2 3 2 2 4 3 2 2 1 1 1 1 1 1 1 2 2 2 2 3 3 3 4 5 5 6 6 6 7 7 8 8 9
3 4 4 3 2 3 3 2 2 3 3 2 1 1 2 2 1 1 1 1 1 2 2 2 3 3 3 4 5 5 6 6 6 7 7 8 8 9
5 4 4 3 3 3 3 3 2 3 3 3 1 1 2 2 2 1 0 0 1 2 2 2 2 3 3 4 5 5 5 6 6 6 7 7 8 9
6 6 5 5 4 3 4 3 3 2 2 3 2 1 1 1 1 1 1 1 1 2 2 2 3 3 4 5 5 5 5 6 6 6 6 7 8 9
5 5 5 6 6 5 4 4 3 3 3 3 2 2 1 1 2 1 1 1 1 1 2 2 3 3 4 5 5 5 5 6 6 7 7 7 8 9
4 4 5 6 7 6 5 5 5 4 3 3 3 2 2 2 3 2 2 1 1 1 1 1 2 2 2 4 4 5 5 6 6 7 7 7 8 8
4 4 4 6 7 8 8 7 7 6 5 4 3 4 4 3 3 3 2 2 2 2 1 2 1 2 2 2 4 5 5 6 6 7 8 8 8 8
5 4 4 4 6 5 6 7 7 7 8 6 5 5 5 5 5 4 4 3 3 2 2 2 1 2 2 3 5 5 4 5 6 7 7 8 8 8
4 5 5 5 5 5 5 4 4 4 5 5 5 5 4 4 5 5 4 2 0 1 2 2 2 2 3 2 4 4 4 5 6 7 7 8 8 8
4 4 5 5 7 8 6 5 5 4 4 5 5 5 6 6 4 3 3 2 1 2 2 2 1 1 2 2 2 4 4 6 7 7 8 9 9 8
3 4 6 6 8 8 6 6 6 5 4 3 2 3 3 4 6 4 4 3 2 2 2 2 1 0 2 2 1 2 2 5 7 7 8 9 9 5
3 3 3 6 7 8 7 6 7 5 4 4 3 2 2 2 2 2 3 3 3 3 3 2 1 1 2 2 2 2 2 2 3 4 6 8 9 7
3 3 3 6 6 7 6 6 6 5 3 4 3 3 3 3 2 2 2 2 2 3 4 3 2 3 2 3 3 2 2 2 3 3 3 6 7 9
3 4 5 6 6 5 6 6 5 3 3 4 4 3 3 3 2 2 1 1 0 1 2 3 3 3 2 3 3 3 3 3 2 2 3 3 3 3
2 3 4 5 4 3 3 3 3 3 4 4 3 2 2 2 2 2 2 2 1 1 1 1 2 3 3 3 4 4 3 3 2 3 3 4 3 3
2 1 1 2 2 2 2 2 2 2 3 3 3 3 3 3 2 2 2 2 2 2 1 1 0 1 2 3 4 4 4 4 4 3 3 4 4 4
3 2 2 3 3 3 3 3 3 3 3 3 3 3 4 3 3 2 2 3 3 3 2 2 1 1 1 3 5 5 4 4 3 3 3 4 6 4
3 3 3 3 3 3 3 3 3 3 2 3 3 3 3 3 3 3 3 3 3 3 2 2 2 2 2 4 3 3 3 3 3 3 4 4 6 6
2 2 2 2 3 3 3 3 3 3 3 3 3 3 3 3 4 4 4 4 3 2 2 2 3 3 4 4 3 3 5 4 4 4 4 4 6 8
1 2 2 2 2 2 3 3 3 3 3 3 3 4 4 4 4 4 4 5 4 3 4 3 3 3 1 1 2 3 3 5 6 5 4 4 5 5
1 1 1 2 2 2 3 3 3 3 4 3 3 3 4 4 4 5 4 4 4 3 3 2 2 1 2 3 4 5 4 4 6 9 10 9 5 4
1 1 1 2 2 2 2 3 4 3 3 4 4 3 4 4 4 4 4 4 3 3 3 2 2 2 2 3 4 4 5 5 4 4 5 8 11 14
Wind_Direction
196 193 188 189 183 166 157 162 161 179 218 213 213 233 215 187 195 166 251 340 345 343 357 12 11 7 6 6 2 359 354 351 343 336 335 331 327 323
192 192 196 188 184 168 166 167 171 175 197 210 213 222 213 204 206 174 190 26 346 335 345 357 355 354 352 353 354 351 348 343 342 339 332 328 326 323
195 198 204 191 192 181 169 166 171 165 190 230 232 214 195 197 219 188 167 170 284 312 323 343 356 349 345 344 343 340 339 336 333 331 332 331 331 328
199 197 208 196 203 189 177 180 184 177 174 204 218 209 212 208 188 191 226 308 263 294 299 327 340 337 334 337 334 338 341 336 331 327 327 328 327 328
200 198 204 194 206 194 185 188 186 178 168 178 203 204 206 195 172 191 215 265 292 292 289 307 318 320 319 321 328 339 342 334 326 325 326 326 325 325
206 201 202 200 207 197 193 188 177 169 163 168 186 192 191 180 167 186 235 237 272 298 275 294 308 315 316 319 327 329 327 327 325 323 322 323 322 321
205 206 207 210 210 203 198 187 179 181 178 181 192 191 193 186 200 192 219 229 255 231 229 278 297 294 300 307 313 314 315 316 318 323 324 321 321 320
210 215 217 216 209 210 211 204 195 190 191 194 207 206 206 202 194 198 199 205 238 203 208 262 257 266 276 272 296 308 312 315 320 324 325 322 319 319
209 209 218 222 208 201 209 212 212 212 205 200 204 212 206 200 191 204 210 214 229 200 193 241 232 258 278 288 294 302 316 323 322 323 325 326 322 318
213 211 210 206 206 198 194 197 206 214 214 208 206 209 210 198 196 203 207 202 212 220 194 224 229 257 284 279 285 296 319 327 328 328 327 327 328 325
222 214 206 204 212 208 196 195 207 223 234 220 217 213 208 204 191 165 172 186 235 236 199 200 226 276 273 265 282 303 315 320 321 321 323 325 327 328
225 222 222 217 216 212 199 192 203 210 191 181 192 203 198 196 201 197 188 197 210 227 196 185 207 262 276 257 264 287 300 307 312 318 321 322 325 327
227 220 221 226 227 221 213 202 206 194 179 175 176 178 182 182 191 201 202 200 206 228 195 178 206 227 241 273 270 258 261 289 301 306 311 314 319 322
224 221 218 224 231 231 224 213 208 193 173 175 185 193 195 196 193 193 199 211 216 219 195 190 209 211 224 262 268 266 263 267 277 288 295 305 311 312
227 220 220 222 228 225 223 217 203 185 179 186 195 204 197 184 167 160 153 143 111 225 207 212 211 212 217 241 258 265 282 273 261 270 284 291 290 296
235 221 217 219 221 214 210 213 204 193 190 193 191 184 167 171 184 175 177 171 178 300 300 241 220 209 235 250 249 259 257 259 265 273 282 281 279 275
188 176 184 188 195 193 189 188 186 185 194 186 182 180 186 193 195 184 182 181 199 212 235 262 261 253 255 251 251 251 255 259 259 268 276 282 276 270
190 178 191 197 201 200 201 198 197 197 192 189 189 191 194 195 194 192 192 193 204 215 221 217 212 297 309 288 245 244 252 263 265 264 262 277 283 277
173 184 197 205 205 201 202 203 206 203 191 192 197 197 193 193 194 199 201 202 212 215 217 211 209 207 247 274 275 234 245 266 273 274 266 266 276 282
183 194 205 208 208 206 204 205 203 197 196 198 201 199 194 195 199 202 203 203 208 214 221 218 215 216 228 247 262 271 263 255 260 273 280 277 274 280
203 207 210 210 210 210 209 205 205 205 202 200 203 201 197 196 203 207 206 212 215 214 221 229 233 241 245 247 266 267 263 263 264 263 274 283 290 288
226 228 224 219 216 212 209 205 206 208 204 204 204 201 199 200 205 209 209 208 214 217 229 238 212 217 221 235 253 267 276 284 282 280 274 267 265 267
244 241 241 236 231 221 213 209 209 213 208 204 202 202 200 204 207 209 213 212 209 210 215 226 227 226 238 240 251 262 270 281 290 294 285 281 278 276